Location: Newark
(34.3481°N, 134.0494°E)
Time: 14:36:31
(UTC+00:00)

Vanguard 3 - Pass Details

Date: 26 January 2020
Orbit: 508 x 3263 km, 33.3° (Epoch: 28 February)

Event Time Altitude Azimuth Distance (km) Brightness Sun altitude
Rises 08:27:21 0° 246° (WSW) 6,813 15.9 -0.9°
Reaches altitude 10° 08:31:36 10° 245° (WSW) 5,983 13.7 -1.8°
Maximum altitude 08:51:32 77° 163° (SSE) 3,222 10.2 -5.6°
Drops below altitude 10° 09:08:11 10° 81° (E) 5,135 10.5 -8.9°
Enters shadow 09:08:24 - 81° (E) 5,182 10.6 -8.9°
